Location: Oakley
(37.9974°N, 121.7125°W)
Time: 18:39:55
(UTC+00:00)

COSMO-SKYMED 1 - Pass Details

Date: 13 February 2026
Orbit: 577 x 579 km, 97.9° (Epoch: 10 March)

Event Time Altitude Azimuth Distance (km) Brightness Sun altitude
Rises 14:16:45 0° 187° (S) 2,781 6.0 -8.9°
Reaches altitude 10° 14:19:03 10° 196° (SSW) 1,887 5.0 -8.5°
Maximum altitude 14:22:47 34° 262° (W) 959 3.1 -7.8°
Drops below altitude 10° 14:26:33 10° 328° (NNW) 1,899 4.7 -7.0°
Sets 14:28:52 0° 338° (NNW) 2,803 5.6 -6.6°
